Weslaco, TX

5:14 PM CDT on October 19, 2017 (GMT -0500)
Weslaco

Weather History for KT65 - February, 2014

Change the Weather History Date:

Tuesday, February 18, 2014

  Actual Average (KMFE) Record (KMFE)
Temperature  
Mean Temperature 74 °F -  
Max Temperature 82 °F 75 °F 98 °F (1986)
Min Temperature 65 °F 54 °F 37 °F (1979)
Cooling Degree Days 8    
Growing Degree Days 24 (Base 50)    
Moisture  
Dew Point 63 °F    
Average Humidity 73    
Maximum Humidity 90    
Minimum Humidity 46    
Precipitation  
Precipitation 0.00 in - - ()
Sea Level Pressure  
Sea Level Pressure 29.99 in    
Wind  
Wind Speed 11 mph (SSE)    
Max Wind Speed 18 mph    
Max Gust Speed 28 mph    
Visibility 8 miles    
Events      
Averages and records for this station are not official NWS values.
T = Trace of Precipitation, MM = Missing Value Source: NWS Daily Summary

Daily Weather History Graph

Daily Weather History Graph

Search for Another Location

Airport or City:

Trip Planner

Search our weather history database for the weather conditions in past years. The results will help you decide how hot, cold, wet, or windy it might be!

Date:

Astronomy

Feb. 18, 2014 Rise Set
Actual Time 7:05 AM CST 6:26 PM CST
Civil Twilight 6:41 AM CST 6:50 PM CST
Nautical Twilight 6:14 AM CST 7:17 PM CST
Astronomical Twilight 5:47 AM CST 7:44 PM CST
Moon 9:54 PM CST (2/18) 9:02 AM CST (2/18)
Length of Visible Light 12h 08m
Length of Day
11h 21m
Waning Gibbous, 87% of the Moon is Illuminated
Feb 18
Waning Gibbous
Feb 22
Last Quarter
Mar 1
New
Mar 8
First Quarter
Mar 16
Full

Hourly Weather History & Observations

Time (CST) Temp. Heat Index Dew Point Humidity Pressure Visibility Wind Dir Wind Speed Gust Speed Precip Events Conditions
12:15 AM 68.5 °F - 65.3 °F 89% 30.06 in 7.0 mi SSE 6.9 mph - N/A   Overcast
12:35 AM 68.5 °F - 65.5 °F 90% 30.05 in 5.0 mi SSE 6.9 mph - N/A   Overcast
12:55 AM 68.5 °F - 65.3 °F 89% 30.05 in 5.0 mi SSE 8.1 mph - N/A   Overcast
1:15 AM 68.9 °F - 65.7 °F 89% 30.05 in 7.0 mi SSE 8.1 mph - N/A   Overcast
1:35 AM 68.9 °F - 65.5 °F 89% 30.04 in 5.0 mi SE 5.8 mph - N/A   Overcast
1:55 AM 69.1 °F - 65.7 °F 89% 30.04 in 7.0 mi SSE 9.2 mph - N/A   Overcast
2:15 AM 69.1 °F - 65.5 °F 88% 30.04 in 7.0 mi SSE 8.1 mph - N/A   Overcast
2:35 AM 69.3 °F - 65.5 °F 88% 30.04 in 7.0 mi SSE 9.2 mph - N/A   Overcast
2:55 AM 69.3 °F - 65.5 °F 88% 30.03 in 7.0 mi SSE 11.5 mph - N/A   Overcast
3:15 AM 69.1 °F - 65.3 °F 88% 30.02 in 7.0 mi SSE 10.4 mph - N/A   Overcast
3:35 AM 69.3 °F - 65.3 °F 87% 30.02 in 7.0 mi South 9.2 mph - N/A   Overcast
3:55 AM 69.1 °F - 65.3 °F 88% 30.02 in 7.0 mi SSE 10.4 mph - N/A   Overcast
4:15 AM 68.9 °F - 65.1 °F 88% 30.02 in 7.0 mi SSE 11.5 mph 17.3 mph N/A   Overcast
4:35 AM 68.5 °F - 64.8 °F 88% 30.02 in 7.0 mi SSE 8.1 mph - N/A   Overcast
4:55 AM 68.4 °F - 64.8 °F 88% 30.01 in 7.0 mi SSE 8.1 mph - N/A   Overcast
5:15 AM 68.0 °F - 64.4 °F 88% 30.01 in 7.0 mi SSE 9.2 mph - N/A   Overcast
5:35 AM 68.2 °F - 64.0 °F 87% 30.02 in 7.0 mi South 11.5 mph - N/A   Overcast
5:55 AM 68.5 °F - 63.5 °F 84% 30.02 in 7.0 mi South 12.7 mph 18.4 mph N/A   Overcast
6:15 AM 68.5 °F - 63.7 °F 84% 30.03 in 10.0 mi South 10.4 mph 18.4 mph N/A   Overcast
6:35 AM 68.5 °F - 63.7 °F 84% 30.03 in 10.0 mi South 13.8 mph 18.4 mph N/A   Overcast
6:55 AM 68.5 °F - 63.7 °F 84% 30.04 in 10.0 mi South 12.7 mph 17.3 mph N/A   Overcast
7:15 AM 68.0 °F - 63.5 °F 85% 30.04 in 7.0 mi South 11.5 mph 21.9 mph N/A   Overcast
7:35 AM 68.0 °F - 63.5 °F 85% 30.04 in 7.0 mi South 12.7 mph 20.7 mph N/A   Overcast
7:55 AM 68.4 °F - 63.5 °F 84% 30.05 in 7.0 mi South 15.0 mph 19.6 mph N/A   Overcast
8:15 AM 68.7 °F - 63.5 °F 83% 30.05 in 7.0 mi South 17.3 mph 21.9 mph N/A   Overcast
8:35 AM 69.1 °F - 63.5 °F 82% 30.06 in 7.0 mi South 13.8 mph 20.7 mph N/A   Overcast
8:55 AM 69.8 °F - 63.7 °F 81% 30.06 in 7.0 mi South 12.7 mph 20.7 mph N/A   Overcast
9:15 AM 70.9 °F - 64.0 °F 79% 30.06 in 7.0 mi SSE 18.4 mph 23.0 mph N/A   Overcast
9:35 AM 72.7 °F - 64.2 °F 75% 30.06 in 7.0 mi South 15.0 mph 20.7 mph N/A   Scattered Clouds
9:55 AM 73.4 °F - 64.2 °F 73% 30.06 in 7.0 mi South 16.1 mph 21.9 mph N/A   Scattered Clouds
10:15 AM 74.8 °F - 63.5 °F 68% 30.06 in 7.0 mi South 15.0 mph 20.7 mph N/A   Scattered Clouds
10:35 AM 76.3 °F - 63.1 °F 64% 30.06 in 7.0 mi SSE 17.3 mph 23.0 mph N/A   Clear
10:55 AM 77.5 °F - 62.8 °F 60% 30.06 in 10.0 mi SSE 17.3 mph 21.9 mph N/A   Clear
11:15 AM 78.3 °F - 62.4 °F 58% 30.05 in 10.0 mi South 16.1 mph - N/A   Scattered Clouds
11:35 AM 79.2 °F - 62.2 °F 56% 30.04 in 7.0 mi South 13.8 mph 23.0 mph N/A   Scattered Clouds
11:55 AM 79.7 °F - 61.9 °F 54% 30.03 in 7.0 mi South 15.0 mph 24.2 mph N/A   Scattered Clouds
12:15 PM 80.8 °F 81.6 °F 61.2 °F 51% 30.01 in 10.0 mi SSE 15.0 mph 27.6 mph N/A   Scattered Clouds
12:35 PM 81.3 °F 82.1 °F 61.0 °F 50% 30.00 in 10.0 mi South 17.3 mph 25.3 mph N/A   Scattered Clouds
12:55 PM 81.9 °F 82.5 °F 61.2 °F 49% 29.98 in 7.0 mi SSE 18.4 mph 24.2 mph N/A   Scattered Clouds
1:15 PM 81.1 °F 82.0 °F 61.3 °F 51% 29.97 in 7.0 mi SSE 16.1 mph 26.5 mph N/A   Mostly Cloudy
1:35 PM 81.7 °F 82.4 °F 61.2 °F 50% 29.96 in 10.0 mi SSE 13.8 mph 25.3 mph N/A   Mostly Cloudy
1:55 PM 82.4 °F 83.2 °F 62.2 °F 50% 29.95 in 10.0 mi SSE 15.0 mph 23.0 mph N/A   Scattered Clouds
2:15 PM 82.6 °F 83.2 °F 61.9 °F 49% 29.94 in 10.0 mi SSE 15.0 mph 21.9 mph N/A   Scattered Clouds
2:35 PM 82.2 °F 82.9 °F 61.5 °F 49% 29.93 in 10.0 mi South 17.3 mph 24.2 mph N/A   Scattered Clouds
2:55 PM 82.4 °F 82.9 °F 61.2 °F 48% 29.92 in 10.0 mi SSE 15.0 mph 21.9 mph N/A   Clear
3:15 PM 82.0 °F 82.4 °F 60.3 °F 47% 29.92 in 10.0 mi South 17.3 mph 23.0 mph N/A   Clear
3:35 PM 81.9 °F 82.2 °F 59.5 °F 47% 29.92 in 10.0 mi SSE 16.1 mph 21.9 mph N/A   Clear
3:55 PM 81.9 °F 82.1 °F 59.2 °F 46% 29.91 in 10.0 mi SSE 12.7 mph 21.9 mph N/A   Clear
4:15 PM 81.0 °F 81.2 °F 58.3 °F 46% 29.91 in 10.0 mi South 16.1 mph 23.0 mph N/A   Clear
4:35 PM 80.8 °F 81.4 °F 59.9 °F 49% 29.91 in 10.0 mi SSE 18.4 mph 23.0 mph N/A   Clear
4:55 PM 79.5 °F - 60.1 °F 51% 29.91 in 10.0 mi SSE 16.1 mph 25.3 mph N/A   Clear
5:15 PM 78.4 °F - 60.6 °F 54% 29.91 in 10.0 mi SSE 13.8 mph 23.0 mph N/A   Clear
5:35 PM 77.0 °F - 60.8 °F 57% 29.91 in 10.0 mi SE 15.0 mph 24.2 mph N/A   Clear
5:55 PM 76.1 °F - 60.1 °F 57% 29.92 in 10.0 mi SSE 15.0 mph 20.7 mph N/A   Clear
6:15 PM 74.7 °F - 60.1 °F 60% 29.92 in 10.0 mi SSE 16.1 mph - N/A   Clear
6:35 PM 73.4 °F - 60.3 °F 63% 29.92 in 10.0 mi SSE 12.7 mph 19.6 mph N/A   Clear
6:55 PM 72.1 °F - 60.8 °F 67% 29.93 in 10.0 mi SSE 11.5 mph 16.1 mph N/A   Clear
7:15 PM 71.2 °F - 61.2 °F 70% 29.93 in 10.0 mi SSE 13.8 mph 18.4 mph N/A   Clear
7:35 PM 70.2 °F - 61.2 °F 73% 29.94 in 10.0 mi SSE 10.4 mph 17.3 mph N/A   Clear
7:55 PM 69.6 °F - 61.7 °F 76% 29.95 in 10.0 mi SSE 10.4 mph - N/A   Clear
8:15 PM 69.3 °F - 62.2 °F 78% 29.96 in 10.0 mi SSE 8.1 mph - N/A   Clear
8:35 PM 68.4 °F - 62.6 °F 82% 29.97 in 10.0 mi SSE 10.4 mph 16.1 mph N/A   Clear
8:55 PM 68.0 °F - 62.4 °F 82% 29.97 in 10.0 mi SE 6.9 mph - N/A   Clear
9:15 PM 67.5 °F - 62.6 °F 84% 29.96 in 10.0 mi SE 10.4 mph - N/A   Clear
9:35 PM 67.1 °F - 62.8 °F 86% 29.96 in 10.0 mi SSE 11.5 mph - N/A   Clear
9:55 PM 66.7 °F - 62.6 °F 86% 29.97 in 10.0 mi SSE 9.2 mph - N/A   Clear
10:15 PM 66.4 °F - 62.6 °F 88% 29.96 in 10.0 mi SSE 9.2 mph - N/A   Clear
10:35 PM 66.2 °F - 62.6 °F 88% 29.96 in 10.0 mi SSE 10.4 mph - N/A   Clear
10:55 PM 66.0 °F - 62.6 °F 89% 29.96 in 10.0 mi SSE 9.2 mph - N/A   Clear
11:15 PM 65.8 °F - 62.4 °F 89% 29.96 in 10.0 mi SSE 9.2 mph - N/A   Clear
11:55 PM 65.5 °F - 62.6 °F 90% 29.95 in 10.0 mi SSE 10.4 mph - N/A   Mostly Cloudy